Location: Walton
(43.6794°N, 81.3017°W)
Time: 21:17:56
(UTC+00:00)

Cosmos 1980 Rocket - Pass Details

Date: 09 December 2025
Orbit: 830 x 847 km, 71.0° (Epoch: 21 January)

Event Time Altitude Azimuth Distance (km) Brightness Sun altitude
Rises 00:00:58 0° 198° (SSW) 3,387 5.7 -23.2°
Reaches altitude 10° 00:03:24 10° 197° (SSW) 2,454 4.9 -23.6°
Maximum altitude 00:09:02 77° 112° (ESE) 866 2.0 -24.6°
Enters shadow 00:10:00 61° 47° (NE) 954 2.1 -24.8°
